TimeEST,TemperatureF,Dew PointF,Humidity,Sea Level PressureIn,VisibilityMPH,Wind Direction,Wind SpeedMPH,Gust SpeedMPH,PrecipitationIn,Events,Conditions,WindDirDegrees,DateUTC
12:53 AM,39.0,30.9,73,30.23,10.0,SSW,9.2,-,N/A,,Scattered Clouds,210,2013-11-11 05:53:00
1:53 AM,39.9,30.0,68,30.21,10.0,SW,5.8,-,N/A,,Overcast,220,2013-11-11 06:53:00
2:53 AM,39.9,30.9,70,30.19,10.0,SSW,9.2,-,N/A,,Overcast,210,2013-11-11 07:53:00
3:53 AM,39.9,30.0,68,30.16,10.0,SSW,8.1,-,N/A,,Overcast,210,2013-11-11 08:53:00
4:53 AM,41.0,30.0,65,30.14,10.0,SW,12.7,-,N/A,,Overcast,220,2013-11-11 09:53:00
5:53 AM,42.1,30.9,65,30.12,10.0,SSW,12.7,-,N/A,,Overcast,210,2013-11-11 10:53:00
6:53 AM,42.1,30.9,65,30.09,10.0,SSW,11.5,-,N/A,,Overcast,210,2013-11-11 11:53:00
7:53 AM,43.0,30.9,62,30.10,10.0,SW,10.4,-,N/A,,Overcast,220,2013-11-11 12:53:00
8:53 AM,44.1,30.9,60,30.10,10.0,WSW,9.2,-,N/A,,Overcast,240,2013-11-11 13:53:00
9:53 AM,44.1,30.9,60,30.10,10.0,SW,9.2,-,N/A,,Overcast,230,2013-11-11 14:53:00
10:53 AM,44.1,34.0,68,30.10,10.0,WSW,5.8,-,0.00,,Overcast,240,2013-11-11 15:53:00
11:53 AM,44.1,37.9,79,30.10,10.0,WNW,9.2,-,0.01,Rain,Light Rain,290,2013-11-11 16:53:00
12:17 PM,42.8,37.4,81,30.07,10.0,NW,11.5,-,0.01,Rain,Light Rain,310,2013-11-11 17:17:00
12:53 PM,41.0,37.0,86,30.10,5.0,NW,15.0,20.7,0.04,Rain,Light Rain,310,2013-11-11 17:53:00
1:53 PM,39.9,36.0,86,30.10,5.0,NW,11.5,-,0.02,Rain,Light Rain,320,2013-11-11 18:53:00
2:53 PM,37.0,34.0,89,30.12,5.0,NNW,9.2,-,0.04,Rain,Rain,340,2013-11-11 19:53:00
3:23 PM,33.8,30.2,87,30.12,0.8,North,15.0,-,0.03,Snow,Light Snow,360,2013-11-11 20:23:00
3:39 PM,33.8,30.2,87,30.14,1.0,North,15.0,19.6,0.03,Snow,Light Snow,350,2013-11-11 20:39:00
3:53 PM,33.1,30.9,92,30.17,1.2,North,12.7,-,0.03,Snow,Light Snow,350,2013-11-11 20:53:00
4:53 PM,32.0,28.9,88,30.21,1.0,North,13.8,21.9,0.00,Snow,Light Snow,350,2013-11-11 21:53:00
5:50 PM,30.2,26.6,86,30.22,3.0,North,16.1,-,0.00,Snow,Light Snow,350,2013-11-11 22:50:00
5:53 PM,30.0,27.0,88,30.25,4.0,North,16.1,-,0.00,Snow,Light Snow,350,2013-11-11 22:53:00
6:05 PM,30.2,26.6,86,30.22,4.0,North,12.7,23.0,0.00,Snow,Light Snow,360,2013-11-11 23:05:00
6:11 PM,30.2,24.8,80,30.22,6.0,North,13.8,20.7,0.00,Snow,Light Snow,360,2013-11-11 23:11:00
6:53 PM,30.0,24.1,79,30.27,10.0,North,13.8,-,0.00,,Overcast,350,2013-11-11 23:53:00
7:53 PM,28.9,21.0,72,30.32,10.0,North,13.8,20.7,N/A,,Clear,350,2013-11-12 00:53:00
8:53 PM,28.9,19.0,67,30.33,10.0,North,13.8,19.6,N/A,,Scattered Clouds,360,2013-11-12 01:53:00
9:53 PM,28.0,19.9,72,30.36,10.0,North,10.4,-,N/A,,Mostly Cloudy,360,2013-11-12 02:53:00
10:53 PM,27.0,19.0,72,30.38,10.0,North,9.2,-,N/A,,Clear,360,2013-11-12 03:53:00
11:53 PM,26.1,19.0,75,30.40,10.0,NNW,9.2,-,N/A,,Clear,340,2013-11-12 04:53:00